Weather History for South Bend, IN

Change the Weather History Date:

Tuesday, August 27, 2013

  Actual Average Record
Temperature  
Mean Temperature 82 °F 70 °F  
Max Temperature 93 °F 80 °F 96 °F (1948)
Min Temperature 71 °F 60 °F 45 °F (1968)
Degree Days  
Heating Degree Days 0 1  
Month to date heating degree days 15 4  
Since 1 June heating degree days 66 53  
Since 1 July heating degree days 29 9  
Cooling Degree Days 17 6  
Month to date cooling degree days 143 184  
Year to date cooling degree days 633 658  
Since 1 June cooling degree days 537 602  
Growing Degree Days 32 (Base 50)    
Moisture  
Dew Point 69 °F    
Average Humidity 67    
Maximum Humidity 87    
Minimum Humidity 45    
Precipitation  
Precipitation 0.00 in 0.11 in 1.09 in (1978)
Month to date precipitation 2.99 3.27  
Year to date precipitation 26.88 24.78  
Snow  
Snow 0.00 in - - ()
Month to date snowfall 0.0  
Since 1 June snowfall 0.0  
Snow Depth 0.00 in    
Sea Level Pressure  
Sea Level Pressure 29.95 in    
Wind  
Wind Speed 9 mph (SW)    
Max Wind Speed 21 mph    
Max Gust Speed 29 mph    
Visibility 10 miles    
Events      
T = Trace of Precipitation, MM = Missing Value Source: NWS Daily Summary

Daily Weather History Graph

Daily Weather History Graph

Search for Another Location

Airport:

Trip Planner

Search our weather history database for the weather conditions in past years. The results will help you decide how hot, cold, wet, or windy it might be!

Date:

Astronomy

Aug. 27, 2013 Rise Set
Actual Time 7:06 AM EDT 8:26 PM EDT
Civil Twilight 6:37 AM EDT 8:55 PM EDT
Nautical Twilight 6:02 AM EDT 9:29 PM EDT
Astronomical Twilight 5:25 AM EDT 10:06 PM EDT
Moon No Moon Rise 2:10 PM EDT (8/27)
Length of Visible Light 14h 17m
Length of Day
13h 19m
Waning Gibbous, 57% of the Moon is Illuminated
Aug 27
Waning Gibbous
Aug 28
Last Quarter
Sep 5
New
Sep 12
First Quarter
Sep 19
Full

Hourly Weather History & Observations

Time (EDT) Temp. Heat Index Dew Point Humidity Pressure Visibility Wind Dir Wind Speed Gust Speed Precip Events Conditions
12:54 AM 75.0 °F - 66.9 °F 76% 30.02 in 10.0 mi SW 9.2 mph - N/A   Clear
1:54 AM 73.9 °F - 66.9 °F 79% 30.01 in 10.0 mi SW 10.4 mph - N/A   Clear
2:54 AM 73.0 °F - 66.9 °F 81% 30.01 in 10.0 mi SW 9.2 mph - N/A   Scattered Clouds
3:54 AM 73.0 °F - 68.0 °F 84% 29.99 in 10.0 mi SW 8.1 mph - N/A   Clear
4:54 AM 73.0 °F - 68.0 °F 84% 29.98 in 10.0 mi SW 6.9 mph - N/A   Clear
5:54 AM 73.0 °F - 68.0 °F 84% 29.97 in 9.0 mi SW 5.8 mph - N/A   Clear
6:54 AM 72.0 °F - 68.0 °F 87% 29.99 in 9.0 mi SSW 3.5 mph - N/A   Clear
7:54 AM 72.0 °F - 68.0 °F 87% 29.99 in 7.0 mi SSW 4.6 mph - N/A   Clear
8:54 AM 73.0 °F - 69.1 °F 87% 30.00 in 7.0 mi SSW 5.8 mph - N/A   Clear
9:54 AM 77.0 °F - 70.0 °F 79% 30.00 in 9.0 mi Calm Calm - N/A   Clear
10:54 AM 81.0 °F 84.9 °F 71.1 °F 72% 29.99 in 10.0 mi Variable 4.6 mph - N/A   Clear
11:54 AM 82.9 °F 88.0 °F 72.0 °F 69% 29.99 in 10.0 mi WSW 5.8 mph - N/A   Clear
12:54 PM 86.0 °F 91.5 °F 71.1 °F 61% 29.98 in 10.0 mi WSW 5.8 mph - N/A   Clear
1:54 PM 90.0 °F 96.9 °F 72.0 °F 55% 29.95 in 10.0 mi WSW 11.5 mph 16.1 mph N/A   Clear
2:54 PM 89.1 °F 95.0 °F 71.1 °F 55% 29.94 in 10.0 mi SW 9.2 mph - N/A   Clear
3:54 PM 91.9 °F 99.5 °F 72.0 °F 52% 29.91 in 10.0 mi SSW 11.5 mph - N/A   Clear
4:54 PM 93.0 °F 97.9 °F 69.1 °F 45% 29.90 in 10.0 mi SW 17.3 mph - N/A   Partly Cloudy
5:54 PM 91.9 °F 95.9 °F 68.0 °F 45% 29.90 in 10.0 mi WSW 17.3 mph 20.7 mph N/A   Partly Cloudy
6:54 PM 90.0 °F 93.6 °F 68.0 °F 48% 29.89 in 10.0 mi SW 12.7 mph 25.3 mph N/A   Clear
7:54 PM 87.1 °F 91.3 °F 69.1 °F 55% 29.88 in 10.0 mi SSW 10.4 mph - N/A   Clear
8:54 PM 84.9 °F 88.8 °F 69.1 °F 59% 29.88 in 10.0 mi SW 10.4 mph - N/A   Clear
9:54 PM 84.0 °F 88.4 °F 70.0 °F 63% 29.89 in 10.0 mi SW 11.5 mph - N/A   Scattered Clouds
10:54 PM 82.9 °F 87.5 °F 71.1 °F 67% 29.88 in 10.0 mi WSW 15.0 mph 20.7 mph N/A   Partly Cloudy
11:54 PM 82.0 °F 85.9 °F 70.0 °F 67% 29.86 in 10.0 mi SW 12.7 mph - N/A   Clear